Location: Nicosia
(35.1670°N, 33.3670°E)
Time: 01:28:25
(UTC+02:00)

BlueWalker 3 - Pass Details

Date: 09 December 2022
Orbit: 499 x 517 km, 53.2° (Epoch: 27 January)

Event Time Altitude Azimuth Distance (km) Brightness Sun altitude
Rises 17:24:39 0° 327° (NNW) 2,627 5.8 -10.2°
Reaches altitude 10° 17:27:32 10° 349° (N) 1,733 4.6 -10.7°
Maximum altitude 17:30:04 16° 29° (NNE) 1,375 3.7 -11.2°
Enters shadow 17:31:04 15° 48° (NE) 1,434 3.7 -11.4°
